Orbital Elements at Epoch 2459200.5 (2020-Dec-17.0) TDB
Reference: JPL 16 (heliocentric ecliptic J2000)
Element | Value | Uncertainty (1-sigma) | Units |
e | .1409062917773195 | 4.6489e-08 | |
a | 2.585504602910363 | 1.3212e-08 | au |
q | 2.221190736941073 | 1.1714e-07 | au |
i | 13.87164409167425 | 4.567e-06 | deg |
node | 27.7321960827379 | 2.453e-05 | deg |
peri | 31.95111711627187 | 3.2524e-05 | deg |
M | 20.52543257009755 | 2.1397e-05 | deg |
tp | 2459113.922265451332 (2020-Sep-21.42226545) | 9.0069e-05 | TDB |
period | 1518.505606694375 4.16 | 1.164e-05 3.187e-08 | d yr |
n | .2370751865603458 | 1.8173e-09 | deg/d |
Q | 2.949818468879653 | 1.5074e-08 | au |
|
| | Orbit Determination Parameters
Additional Information
|